Hourly Data Report for September 26, 2017

All times are specified in Local Standard Time (LST). Add 1 hour to adjust for Daylight Saving Time where and when it is observed.

CHARLOTTETOWN A
PRINCE EDWARD ISLAND

46°17'21.000" N
63°07'09.000" W
48.50 m
8300301
71706
YYG

Download Data

Hourly Data (September 2017)
Hourly Data Report for September 26, 2017
Temp Definition
°C
Dew Point Temp Definition
°C
Rel Hum Definition
%
Wind Dir Definition
10's deg

Wind Spd Definition
km/h
Visibility Definition
km
Stn Press Definition
kPa
Hmdx Definition


Wind Chill Definition


Weather Definition


TIME
00:00 Legend Double Dagger 19.0 17.5 91 22 18 24.1 100.85     LegendNANA
01:00 Legend Double Dagger 18.9 17.3 90 22 21 24.1 100.82     LegendNANA
02:00 Legend Double Dagger 18.7 17.1 90 22 16 24.1 100.76     Clear
03:00 Legend Double Dagger 18.3 17.0 92 22 17 24.1 100.73     LegendNANA
04:00 Legend Double Dagger 18.5 17.1 92 23 13 24.1 100.70     LegendNANA
05:00 Legend Double Dagger 18.4 17.2 92 24 22 24.1 100.70     Mainly Clear
06:00 Legend Double Dagger 18.2 17.2 93 24 18 16.1 100.70     LegendNANA
07:00 Legend Double Dagger 18.7 17.5 93 25 21 16.1 100.70     LegendNANA
08:00 Legend Double Dagger 20.4 18.1 87 25 20 16.1 100.68 26   Mostly Cloudy
09:00 Legend Double Dagger 20.3 17.8 85 25 19 24.1 100.68 26   LegendNANA
10:00 Legend Double Dagger 23.1 18.9 77 26 23 24.1 100.66 30   LegendNANA
11:00 Legend Double Dagger 25.6 19.8 70 26 18 24.1 100.65 33   Mostly Cloudy
12:00 Legend Double Dagger 26.8 19.5 64 29 19 24.1 100.64 34   LegendNANA
13:00 Legend Double Dagger 27.8 19.8 61 29 20 24.1 100.62 35   LegendNANA
14:00 Legend Double Dagger 28.0 19.8 60 31 16 19.3 100.64 35   Mainly Clear
15:00 Legend Double Dagger 22.3 17.1 72 1 26 24.1 100.70 28   LegendNANA
16:00 Legend Double Dagger 18.1 15.0 82 5 12 24.1 100.85     LegendNANA
17:00 Legend Double Dagger 16.9 14.7 87 2 22 19.3 100.91     Mostly Cloudy
18:00 Legend Double Dagger 16.1 14.4 90 3 30 16.1 100.97     LegendNANA
19:00 Legend Double Dagger 15.3 13.5 89 3 27 24.1 101.07     LegendNANA
20:00 Legend Double Dagger 14.4 11.8 84 4 24 24.1 101.17     Cloudy
21:00 Legend Double Dagger 14.2 11.2 82 6 16 24.1 101.24     LegendNANA
22:00 Legend Double Dagger 14.1 10.9 81 6 14 24.1 101.24     LegendNANA
23:00 Legend Double Dagger 14.0 11.1 82 6 18 24.1 101.25     Cloudy

Notes on Data Quality.

Legend

  • E = Estimated
  • M = Missing
  • NA = Not Available
  • ‡ = Partner data that is not subject to review by the National Climate Archives
Date modified: